Temp
-11 -11 -12 -12 -12 -12 -12 -12 -12 -12 -12 -12 -13 -12 -12 -12 -13 -13 -13 -13 -13 -13 -13 -13 -14 -14 -14 -14 -14 -14 -14 -14 -14 -14 -14 -14 -15 -15 -15 -15 -15 -15 -14 -14
-12 -11 -11 -12 -12 -12 -12 -12 -12 -12 -12 -11 -11 -12 -12 -12 -12 -12 -12 -12 -13 -13 -13 -13 -13 -13 -14 -14 -14 -14 -14 -14 -14 -14 -14 -14 -14 -14 -14 -14 -14 -14 -13 -13
-12 -11 -11 -11 -12 -12 -12 -12 -12 -12 -13 -12 -12 -12 -12 -12 -12 -12 -12 -12 -12 -12 -13 -13 -13 -13 -13 -13 -13 -13 -13 -14 -13 -14 -14 -14 -14 -14 -14 -14 -13 -13 -13 -14
-12 -12 -12 -12 -12 -11 -12 -12 -12 -12 -12 -12 -13 -12 -12 -12 -12 -13 -12 -12 -12 -12 -12 -12 -13 -13 -13 -13 -13 -13 -13 -13 -13 -13 -13 -13 -13 -13 -13 -14 -14 -13 -14 -14
-12 -12 -12 -12 -12 -12 -11 -12 -12 -12 -12 -12 -12 -12 -13 -12 -11 -12 -13 -13 -12 -12 -12 -12 -12 -12 -13 -12 -13 -13 -13 -13 -13 -13 -13 -13 -13 -13 -13 -13 -14 -14 -14 -14
-12 -12 -12 -12 -12 -12 -12 -12 -12 -12 -12 -13 -13 -13 -13 -13 -12 -12 -12 -12 -12 -12 -12 -12 -12 -12 -12 -12 -12 -12 -13 -13 -13 -13 -13 -13 -13 -13 -13 -13 -13 -14 -14 -14
-13 -13 -13 -12 -12 -13 -12 -12 -12 -12 -12 -12 -13 -13 -13 -13 -12 -12 -12 -12 -12 -12 -12 -12 -12 -12 -12 -12 -12 -12 -12 -12 -12 -13 -12 -12 -12 -12 -12 -12 -12 -12 -13 -13
-13 -13 -13 -13 -13 -13 -13 -13 -13 -13 -13 -12 -13 -13 -13 -13 -13 -13 -13 -13 -12 -12 -12 -12 -12 -12 -12 -13 -12 -12 -12 -12 -11 -12 -12 -13 -12 -12 -12 -12 -12 -12 -13 -13
-13 -13 -13 -13 -13 -13 -13 -13 -13 -13 -13 -13 -13 -13 -13 -13 -13 -13 -13 -13 -13 -13 -12 -12 -12 -12 -12 -13 -13 -13 -13 -12 -12 -12 -11 -12 -12 -11 -12 -12 -12 -12 -13 -13
-14 -14 -14 -14 -14 -14 -14 -14 -13 -14 -14 -13 -13 -13 -13 -13 -13 -13 -13 -13 -13 -13 -13 -13 -12 -12 -13 -12 -12 -13 -13 -13 -12 -12 -12 -13 -12 -12 -12 -12 -12 -12 -12 -12
-14 -14 -14 -14 -14 -14 -14 -14 -14 -14 -14 -14 -14 -14 -13 -13 -13 -13 -13 -13 -14 -13 -13 -13 -13 -13 -13 -13 -13 -13 -12 -12 -13 -13 -12 -12 -12 -12 -12 -12 -12 -12 -13 -12
-15 -15 -15 -15 -14 -14 -14 -14 -14 -14 -14 -14 -14 -14 -14 -14 -14 -14 -14 -14 -14 -13 -14 -13 -13 -13 -13 -13 -13 -13 -13 -12 -12 -12 -13 -13 -12 -12 -12 -11 -12 -12 -12 -12
-15 -15 -15 -15 -15 -15 -15 -15 -15 -14 -14 -14 -14 -14 -14 -14 -15 -14 -14 -14 -14 -14 -14 -13 -13 -13 -13 -13 -13 -13 -13 -13 -12 -12 -13 -13 -14 -13 -12 -11 -11 -12 -12 -13
-16 -16 -16 -15 -15 -15 -15 -15 -15 -15 -14 -14 -14 -14 -14 -14 -14 -14 -13 -13 -14 -14 -14 -14 -14 -14 -13 -13 -13 -13 -14 -13 -13 -12 -14 -13 -14 -13 -13 -13 -12 -12 -12 -12
-16 -16 -16 -16 -16 -15 -15 -16 -15 -15 -14 -14 -14 -14 -14 -14 -14 -15 -15 -14 -14 -14 -14 -14 -14 -14 -14 -13 -13 -14 -14 -14 -14 -13 -14 -12 -14 -14 -14 -13 -13 -14 -13 -13
-16 -16 -16 -15 -15 -15 -15 -16 -16 -15 -15 -13 -13 -14 -15 -15 -15 -15 -15 -15 -15 -15 -14 -14 -14 -14 -13 -12 -13 -16 -14 -14 -14 -13 -14 -14 -14 -14 -14 -13 -14 -14 -14 -14
-17 -17 -17 -16 -16 -15 -15 -15 -16 -16 -15 -14 -13 -12 -13 -13 -14 -14 -15 -15 -15 -15 -14 -14 -14 -14 -14 -13 -13 -16 -15 -13 -14 -14 -14 -14 -15 -14 -14 -14 -14 -14 -15 -14
-18 -18 -17 -17 -16 -15 -15 -16 -16 -16 -15 -14 -13 -12 -13 -13 -13 -14 -14 -14 -14 -13 -13 -13 -14 -14 -14 -13 -15 -14 -14 -13 -13 -14 -14 -13 -14 -14 -14 -14 -14 -15 -15 -15
-18 -18 -18 -17 -17 -17 -17 -17 -17 -16 -16 -15 -14 -14 -14 -14 -15 -15 -15 -15 -15 -14 -14 -14 -13 -13 -12 -16 -14 -14 -14 -14 -14 -15 -15 -15 -14 -14 -15 -15 -14 -15 -16 -16
-18 -18 -18 -18 -18 -18 -18 -17 -17 -16 -16 -15 -15 -15 -15 -16 -16 -16 -16 -16 -15 -15 -14 -14 -13 -13 -16 -16 -15 -14 -14 -15 -14 -15 -16 -16 -16 -16 -16 -16 -16 -17 -17 -18
-18 -18 -18 -18 -18 -18 -18 -18 -17 -17 -16 -15 -16 -16 -16 -16 -16 -17 -17 -16 -16 -15 -14 -14 -13 -13 -17 -16 -15 -16 -16 -16 -16 -17 -17 -18 -19 -19 -19 -19 -19 -19 -19 -19
-20 -19 -19 -19 -19 -18 -18 -17 -17 -16 -16 -16 -17 -17 -17 -17 -17 -18 -17 -17 -16 -15 -15 -14 -13 -15 -16 -15 -18 -18 -18 -18 -19 -19 -20 -21 -21 -21 -21 -21 -21 -21 -21 -21
-20 -20 -20 -20 -20 -19 -17 -17 -17 -17 -18 -18 -18 -18 -19 -19 -19 -19 -20 -19 -18 -17 -16 -15 -15 -18 -17 -19 -19 -20 -20 -21 -22 -22 -22 -22 -21 -22 -22 -22 -21 -21 -21 -21
-23 -23 -21 -20 -19 -18 -18 -19 -19 -19 -19 -20 -20 -21 -20 -20 -21 -21 -21 -21 -20 -19 -18 -18 -19 -20 -21 -21 -22 -22 -23 -23 -23 -22 -23 -23 -22 -23 -23 -22 -22 -21 -23 -23
-26 -25 -23 -20 -19 -20 -20 -20 -21 -22 -22 -22 -23 -23 -23 -23 -23 -24 -23 -24 -22 -21 -22 -23 -23 -23 -23 -23 -22 -22 -23 -23 -24 -24 -23 -23 -24 -24 -23 -23 -23 -24 -25 -24
-27 -26 -24 -21 -22 -23 -23 -24 -24 -24 -24 -24 -24 -25 -25 -24 -25 -25 -24 -24 -23 -24 -25 -26 -25 -24 -24 -24 -23 -23 -24 -23 -23 -24 -24 -25 -25 -25 -25 -25 -26 -25 -25 -24
-28 -26 -24 -24 -25 -24 -25 -25 -25 -26 -26 -26 -26 -26 -26 -26 -26 -25 -24 -24 -24 -25 -25 -25 -25 -25 -25 -25 -25 -25 -24 -25 -25 -25 -25 -25 -25 -25 -25 -25 -25 -25 -24 -24
Height
5810 5807 5803 5800 5797 5794 5793 5790 5788 5785 5783 5781 5778 5776 5774 5772 5770 5768 5767 5765 5763 5762 5760 5759 5757 5756 5754 5752 5750 5747 5745 5742 5739 5737 5734 5730 5726 5723 5720 5717 5715 5711 5709 5710
5814 5810 5806 5803 5801 5798 5795 5793 5790 5788 5786 5784 5782 5780 5777 5775 5774 5772 5769 5767 5766 5764 5762 5761 5758 5757 5755 5753 5750 5748 5746 5743 5741 5737 5735 5731 5728 5725 5722 5720 5717 5715 5712 5712
5817 5814 5810 5806 5803 5800 5797 5794 5792 5790 5788 5786 5784 5781 5780 5778 5775 5773 5771 5769 5767 5765 5762 5760 5758 5757 5755 5752 5750 5747 5745 5742 5740 5737 5734 5731 5728 5725 5723 5721 5719 5717 5715 5713
5818 5815 5812 5809 5805 5801 5800 5796 5793 5790 5788 5786 5784 5782 5781 5779 5777 5774 5772 5770 5768 5765 5763 5760 5758 5755 5753 5751 5749 5746 5743 5740 5738 5735 5733 5730 5728 5725 5722 5720 5717 5715 5714 5712
5818 5816 5813 5810 5807 5803 5800 5797 5795 5791 5788 5786 5784 5782 5780 5778 5776 5775 5772 5770 5768 5766 5763 5761 5759 5756 5752 5750 5747 5744 5741 5739 5735 5732 5730 5727 5725 5722 5720 5717 5714 5712 5709 5707
5815 5814 5812 5811 5807 5804 5801 5797 5794 5792 5789 5786 5783 5780 5778 5776 5774 5772 5771 5769 5766 5765 5763 5760 5758 5755 5753 5750 5747 5744 5741 5738 5735 5731 5728 5726 5724 5720 5717 5714 5711 5709 5706 5702
5810 5809 5808 5807 5805 5803 5800 5797 5794 5791 5788 5785 5782 5779 5776 5774 5771 5769 5767 5765 5764 5762 5759 5758 5755 5753 5750 5748 5745 5742 5739 5737 5734 5732 5727 5725 5722 5719 5716 5713 5710 5707 5704 5700
5804 5803 5802 5800 5799 5799 5797 5794 5792 5788 5785 5782 5779 5777 5773 5771 5768 5766 5764 5762 5760 5758 5756 5754 5752 5749 5747 5744 5741 5738 5735 5733 5731 5728 5727 5724 5719 5717 5715 5712 5708 5704 5701 5698
5797 5796 5795 5794 5792 5791 5790 5789 5787 5784 5780 5778 5775 5772 5770 5767 5764 5761 5758 5756 5754 5753 5750 5748 5746 5745 5742 5740 5737 5733 5731 5727 5725 5722 5720 5718 5715 5713 5712 5709 5706 5702 5698 5695
5790 5788 5786 5785 5784 5783 5782 5780 5779 5778 5775 5770 5768 5766 5764 5761 5758 5755 5753 5750 5747 5746 5744 5743 5740 5739 5736 5735 5731 5728 5722 5720 5719 5714 5711 5716 5707 5706 5705 5704 5704 5697 5693 5690
5780 5779 5778 5777 5775 5774 5772 5770 5768 5768 5769 5763 5760 5757 5755 5753 5751 5748 5746 5744 5740 5738 5736 5735 5733 5732 5729 5727 5726 5721 5717 5710 5708 5706 5707 5704 5700 5699 5697 5694 5692 5688 5686 5684
5769 5769 5768 5767 5765 5764 5763 5761 5757 5756 5757 5756 5750 5748 5746 5744 5742 5741 5739 5736 5734 5731 5728 5726 5723 5722 5720 5718 5717 5715 5712 5708 5700 5698 5701 5693 5690 5689 5685 5681 5681 5678 5676 5674
5758 5757 5757 5757 5754 5752 5752 5751 5747 5744 5744 5746 5740 5738 5737 5734 5733 5731 5731 5727 5725 5723 5720 5718 5714 5714 5710 5710 5709 5705 5703 5698 5693 5687 5695 5683 5683 5681 5678 5673 5671 5669 5666 5663
5745 5744 5744 5744 5743 5739 5738 5740 5736 5731 5726 5728 5730 5726 5724 5722 5723 5721 5720 5717 5715 5714 5711 5708 5706 5704 5700 5699 5696 5697 5691 5687 5683 5683 5684 5674 5675 5671 5669 5667 5664 5661 5657 5653
5729 5729 5729 5728 5728 5726 5723 5727 5727 5720 5714 5708 5716 5714 5713 5713 5712 5710 5708 5705 5703 5701 5701 5700 5697 5696 5689 5685 5685 5691 5679 5676 5673 5671 5669 5666 5670 5661 5657 5654 5651 5648 5647 5644
5712 5714 5714 5713 5711 5711 5709 5712 5718 5708 5701 5691 5691 5704 5707 5705 5702 5700 5699 5696 5692 5689 5687 5687 5687 5685 5679 5672 5678 5675 5665 5663 5660 5657 5655 5654 5652 5650 5646 5644 5640 5637 5634 5630
5693 5694 5696 5697 5695 5694 5695 5697 5701 5698 5692 5684 5676 5673 5686 5694 5694 5692 5691 5687 5683 5678 5675 5673 5676 5674 5666 5664 5671 5658 5655 5649 5648 5643 5642 5643 5636 5636 5632 5630 5628 5624 5621 5617
5673 5674 5675 5678 5678 5677 5680 5682 5681 5680 5679 5676 5670 5668 5667 5666 5670 5675 5676 5675 5672 5669 5665 5663 5662 5658 5656 5658 5655 5645 5641 5637 5631 5628 5624 5625 5625 5620 5617 5615 5613 5610 5606 5602
5654 5656 5656 5659 5661 5662 5663 5663 5665 5663 5663 5659 5660 5661 5657 5654 5653 5652 5651 5652 5655 5656 5654 5652 5648 5646 5643 5646 5638 5633 5626 5621 5618 5615 5608 5606 5605 5602 5598 5595 5593 5591 5589 5585
5634 5637 5639 5641 5646 5646 5647 5644 5646 5647 5646 5644 5646 5646 5640 5640 5639 5634 5630 5627 5627 5627 5630 5627 5628 5628 5627 5625 5619 5615 5609 5602 5597 5595 5591 5588 5586 5584 5582 5579 5576 5573 5569 5565
5611 5614 5619 5621 5623 5626 5628 5628 5629 5628 5628 5628 5633 5630 5625 5622 5620 5614 5609 5606 5606 5606 5608 5603 5605 5606 5603 5599 5596 5590 5585 5580 5577 5574 5571 5570 5567 5565 5564 5560 5556 5553 5550 5547
5587 5591 5594 5599 5602 5603 5607 5611 5611 5611 5610 5610 5611 5606 5600 5600 5597 5591 5587 5587 5585 5586 5588 5586 5583 5583 5579 5571 5564 5565 5564 5561 5558 5556 5554 5552 5549 5547 5546 5543 5539 5534 5532 5527
5562 5564 5568 5575 5580 5582 5585 5589 5590 5590 5589 5589 5585 5585 5581 5577 5575 5565 5562 5561 5563 5563 5561 5563 5566 5557 5552 5547 5547 5546 5544 5542 5541 5539 5538 5535 5532 5529 5525 5521 5517 5511 5511 5508
5533 5534 5541 5550 5558 5563 5569 5569 5567 5566 5566 5564 5561 5558 5557 5556 5551 5546 5541 5539 5542 5540 5539 5543 5544 5538 5535 5533 5530 5530 5528 5525 5523 5520 5517 5516 5514 5512 5508 5502 5495 5491 5491 5486
5506 5507 5517 5533 5546 5542 5543 5544 5545 5545 5543 5540 5537 5534 5533 5530 5528 5523 5521 5517 5517 5518 5520 5520 5517 5515 5514 5513 5512 5510 5507 5506 5504 5501 5499 5497 5494 5491 5490 5486 5480 5475 5470 5465
5478 5484 5502 5518 5520 5525 5524 5524 5523 5519 5519 5516 5514 5511 5507 5508 5503 5501 5501 5502 5501 5505 5503 5497 5498 5498 5497 5494 5492 5491 5490 5488 5486 5486 5482 5478 5474 5469 5466 5465 5459 5454 5446 5444
5448 5468 5488 5496 5497 5506 5503 5503 5502 5498 5497 5493 5492 5487 5483 5480 5475 5478 5483 5485 5487 5482 5482 5481 5480 5476 5475 5474 5474 5471 5467 5466 5463 5462 5460 5455 5452 5447 5443 5440 5437 5432 5427 5423
Wind_Speed
33 33 34 28 24 24 23 22 23 23 23 24 23 22 24 25 23 19 16 6 6 6 7 6 6 8 8 10 13 15 15 16 17 18 18 17 17 15 14 14 14 14 13 11
27 29 32 32 31 24 22 22 20 18 19 18 19 20 19 19 20 21 19 16 10 1 2 3 4 6 7 9 11 12 13 13 13 13 13 13 14 13 13 12 12 12 13 13
24 25 27 28 31 31 26 21 20 19 17 15 14 14 16 17 16 15 16 17 17 13 9 6 6 6 6 8 10 11 14 14 13 12 12 12 13 12 10 9 10 12 13 15
22 25 24 24 25 28 30 28 22 19 17 16 14 12 12 13 15 14 12 12 13 14 15 13 10 10 11 11 13 14 14 16 16 16 15 15 16 15 14 14 16 14 15 16
20 21 23 24 23 25 25 28 28 24 20 17 15 14 13 12 12 14 13 12 10 10 11 11 13 14 14 12 11 11 11 11 15 19 18 18 18 19 19 19 20 19 21 20
20 22 22 22 23 23 24 24 26 27 24 21 18 15 14 14 13 12 13 14 13 13 11 11 11 11 12 13 13 15 14 13 12 14 14 14 14 14 14 17 18 17 16 16
25 25 24 23 23 23 23 24 23 24 28 25 22 21 20 17 15 15 14 14 16 15 16 16 15 16 16 15 16 18 17 17 16 14 18 16 13 11 13 15 12 15 15 16
29 29 29 28 28 26 24 23 24 24 23 26 27 23 21 22 21 19 17 17 16 17 18 17 18 20 19 20 20 22 23 22 19 18 17 19 21 17 17 15 16 15 15 16
34 35 35 34 34 34 31 28 25 25 27 26 25 29 27 23 23 25 23 21 22 20 19 21 22 22 23 22 23 24 24 27 27 26 24 26 27 24 22 22 18 18 20 20
37 39 39 40 40 40 39 37 34 30 29 31 30 28 30 30 27 26 26 28 25 26 25 24 24 24 25 26 27 30 31 29 28 32 33 23 32 33 29 29 27 25 25 23
42 43 44 45 45 45 45 45 41 36 32 35 35 34 32 32 32 33 28 28 27 26 28 28 29 27 28 28 27 31 33 38 37 36 32 34 33 34 32 29 27 29 30 29
47 47 48 48 50 51 50 47 46 43 39 36 38 36 36 36 34 30 26 29 30 31 31 29 29 29 29 29 31 32 32 35 43 43 35 41 38 37 34 36 29 29 34 36
51 52 52 52 54 54 51 48 50 47 44 38 39 37 37 33 31 33 31 35 35 32 33 36 38 35 35 33 33 35 34 37 40 43 27 40 37 35 34 34 32 32 37 34
55 56 57 57 56 57 55 54 53 53 53 48 42 40 40 43 38 35 33 33 35 37 37 36 37 40 41 37 36 33 31 38 41 38 29 38 31 33 35 36 37 40 42 42
63 62 62 62 62 60 63 59 49 50 53 54 45 43 38 35 33 32 31 32 36 38 39 39 39 37 42 45 41 30 33 36 38 37 38 42 35 35 38 39 37 36 38 40
67 67 68 68 68 67 64 58 42 45 45 52 49 35 27 28 31 31 32 34 37 38 39 38 35 36 42 47 39 24 39 42 47 48 47 45 45 45 44 43 44 45 44 42
77 75 73 71 67 60 56 54 46 44 46 49 52 51 38 32 31 36 37 36 40 44 44 45 43 42 46 44 35 41 44 48 47 50 51 47 48 47 49 51 50 49 48 48
74 72 69 68 63 58 56 51 53 52 48 47 52 50 50 52 48 44 44 43 44 46 50 52 52 51 49 43 38 50 52 54 55 54 54 54 52 53 53 54 55 55 54 52
66 65 61 60 58 56 52 52 54 56 55 54 52 51 54 56 58 60 58 55 51 51 51 52 55 54 56 47 53 55 57 57 57 56 59 59 59 61 61 61 60 60 60 59
66 64 60 60 58 57 57 57 57 59 59 60 59 60 65 66 67 68 66 65 64 63 63 64 63 59 58 58 62 63 66 67 69 66 63 60 60 60 59 60 62 61 60 59
72 72 70 67 65 66 66 65 65 66 69 70 67 68 70 70 67 67 70 71 70 72 71 72 71 67 59 64 67 70 71 69 71 69 67 62 59 57 56 57 59 61 62 61
75 77 77 75 73 73 74 72 71 70 71 72 71 73 73 72 71 71 73 74 75 76 76 74 75 73 71 73 70 68 67 67 65 60 57 53 52 55 56 57 58 60 60 60
83 83 83 81 78 78 78 77 78 78 76 75 75 73 72 72 72 72 72 74 76 76 78 77 74 69 74 70 69 66 64 54 49 48 48 60 59 55 57 50 58 59 60 67
78 77 81 83 83 85 83 78 79 78 75 71 70 69 69 70 69 69 71 72 72 74 76 73 70 70 67 64 65 64 62 61 66 59 40 41 50 58 57 64 69 69 67 68
73 75 78 83 81 79 80 80 75 69 67 66 65 66 67 65 64 65 67 67 70 72 69 66 66 64 64 65 66 67 68 66 55 50 52 54 55 64 66 69 72 77 71 68
78 79 78 77 75 72 68 65 64 63 63 65 66 65 66 66 67 69 68 70 72 68 65 67 67 67 68 69 68 65 63 66 62 61 64 66 64 62 69 70 70 72 69 67
81 80 75 70 71 67 67 65 65 66 65 66 66 69 69 71 74 75 73 72 70 70 69 68 68 67 67 64 63 64 64 60 63 63 65 64 67 69 67 65 64 66 65 61
Wind_Direction
30 33 31 33 33 31 27 31 36 41 42 38 41 46 50 52 59 57 54 71 73 60 58 55 42 30 20 13 17 13 16 18 20 21 22 23 22 20 17 19 19 20 20 15
26 25 22 23 26 26 26 22 23 30 37 39 37 30 39 45 44 48 55 51 43 357 15 14 4 358 357 356 359 360 6 8 10 14 14 21 23 22 17 13 15 18 23 26
23 20 20 17 17 20 21 17 14 13 16 30 28 27 22 22 31 31 34 42 44 36 20 310 321 310 315 323 328 332 334 339 343 348 352 353 355 353 352 350 347 347 348 340
5 8 13 15 12 10 12 15 14 8 5 5 11 12 9 3 2 12 12 13 19 25 27 23 6 334 321 308 305 307 310 313 317 320 321 325 324 324 324 324 322 329 317 316
345 353 357 1 9 6 3 4 7 10 2 357 355 354 352 349 346 340 348 352 347 351 356 4 5 11 7 9 351 338 338 323 314 310 314 313 308 309 311 310 308 315 309 303
322 329 338 344 350 353 356 354 351 356 3 357 348 343 342 341 334 332 327 326 329 328 321 321 327 335 339 341 346 346 355 358 348 325 327 329 337 327 328 323 326 326 328 325
304 311 318 324 332 338 339 342 341 339 342 347 350 341 332 329 327 321 316 313 313 310 311 313 307 306 309 315 320 324 323 327 333 329 336 332 339 347 342 334 350 346 351 358
294 300 307 313 317 320 324 326 327 325 322 326 329 335 334 326 320 313 308 303 301 303 303 299 302 306 306 306 307 307 308 307 308 307 308 314 315 311 316 316 311 323 334 339
289 295 302 306 310 313 315 316 315 314 313 311 310 316 318 319 319 316 306 303 301 295 294 298 299 299 298 299 301 301 299 302 305 302 298 303 297 295 305 304 300 304 308 315
286 291 296 300 303 307 309 309 308 307 308 305 306 302 301 309 308 308 310 307 299 299 297 293 295 296 296 295 298 300 299 297 296 296 299 300 296 297 300 299 297 291 294 298
284 288 292 295 298 301 303 305 306 305 305 304 304 303 299 291 298 307 303 302 300 296 293 292 293 294 292 286 288 290 290 294 297 294 296 299 292 295 300 298 294 288 290 289
282 285 288 291 294 297 299 301 302 303 304 304 302 302 302 300 295 297 306 303 301 301 299 293 290 294 293 290 287 291 290 288 290 293 299 294 292 298 298 298 302 287 287 289
280 282 285 288 291 293 295 297 298 298 298 297 295 293 296 294 297 299 297 297 301 302 298 294 294 298 295 296 294 295 297 292 289 285 293 288 294 296 292 292 291 291 296 296
279 282 285 287 289 291 292 296 296 296 293 291 287 290 292 293 295 296 294 295 297 295 297 299 301 299 293 291 290 296 301 296 289 293 290 279 290 290 290 287 285 282 287 290
278 281 283 286 288 288 290 294 294 292 290 288 289 289 292 297 298 299 300 296 295 295 293 294 300 306 299 292 289 302 294 288 288 289 288 287 295 293 292 295 295 287 284 283
274 277 279 281 283 286 288 289 294 288 286 287 292 282 286 303 309 307 307 306 301 298 297 299 300 303 298 297 307 308 288 285 283 284 284 290 291 290 290 291 290 293 295 294
275 275 276 277 280 282 281 283 284 281 283 284 289 292 292 288 298 302 306 304 300 298 300 298 297 300 292 296 310 291 294 292 292 291 292 291 291 290 290 290 290 292 292 290
273 275 275 276 275 274 277 276 276 278 279 275 280 286 289 293 295 299 296 292 291 293 293 295 297 292 294 300 295 288 290 291 292 291 289 289 290 292 291 291 291 290 288 287
268 272 272 272 271 271 269 268 271 275 278 280 281 282 285 288 293 296 295 290 287 284 287 287 286 290 295 296 290 289 288 288 286 287 286 284 283 283 283 283 284 285 287 288
265 267 268 270 272 273 271 270 270 270 273 277 281 286 287 290 293 294 291 291 291 293 293 290 291 294 287 285 284 283 283 283 284 283 281 282 283 282 283 284 284 283 281 280
263 266 268 268 268 269 270 272 273 273 276 279 280 281 286 288 288 286 286 287 290 292 293 293 296 295 286 285 284 280 279 278 279 282 285 284 280 277 279 278 277 276 277 277
266 267 267 268 269 271 272 273 273 275 278 282 286 284 282 284 285 284 283 284 285 287 290 292 297 293 290 287 284 285 285 285 285 281 276 280 281 281 278 274 277 279 279 275
262 262 263 266 266 269 274 276 278 280 281 280 280 280 279 280 280 279 280 281 282 285 288 292 289 287 285 287 288 288 288 284 275 273 269 274 280 274 279 275 265 267 275 277
260 260 260 262 266 271 274 276 276 277 278 277 277 275 275 274 274 274 275 275 275 276 279 281 281 281 283 284 284 286 285 280 282 285 281 280 273 277 273 266 270 269 284 281
256 257 259 263 266 268 270 272 272 272 272 273 273 271 270 270 269 271 273 273 275 279 282 282 280 281 281 281 284 284 284 286 282 266 260 266 266 274 268 270 276 277 283 278
256 257 261 263 263 266 266 266 266 267 268 268 268 269 268 267 267 267 268 271 273 276 275 273 276 279 280 281 282 284 282 284 282 272 276 278 279 273 275 282 283 284 287 289
257 259 261 262 262 262 264 266 265 264 263 264 265 265 266 267 267 267 267 268 270 271 274 277 278 279 279 281 283 283 284 285 287 287 287 284 281 283 288 290 291 291 292 292